カタログに戻る

OPS 5111

NAVSTAR 1

運用中ナビゲーションHEO
NORAD 10684·PAYLOAD·🇺🇸 United States

打ち上げ Feb 22, 1978 から Vandenberg Space Force Base

Loading…

次のパス (今後24時間)

TLE

最新Source: Space-Track

元期: Sep 14, 2026, 06:45 UTC

1 10684U 78020A   26257.28147358 -.00000043  00000-0  00000-0 0  9994
2 10684  64.4155  49.6558 0081657 218.7084 140.7044  1.98072568338202

AllMySatでOPS 5111をリアルタイム追跡

Download on the App Store